Location: Newark
(39.9500°N, 8.6833°E)
Time: 19:45:24
(UTC+00:00)

NO-84 - Visible Passes

Search period start: 27 February 2021 00:00
Search period end: 09 March 2021 00:00
Orbit: 313 x 442 km, 55.0° (Epoch: 25 February)

Date Brightness Start Highest point End Pass type
(mag) Time Alt. Az. Time Alt. Az. Time Alt. Az.
27 Feb ? 03:52:35 21° ESE 03:52:35 21° ESE 03:54:17 10° ENE visible
27 Feb ? 05:24:44 10° W 05:27:16 25° NW 05:29:48 10° NNE visible
28 Feb ? 04:26:49 63° NNW 04:26:49 63° NNW 04:29:34 10° NE visible
01 Mar ? 03:28:40 11° ENE 03:28:40 11° ENE 03:28:51 10° ENE visible
01 Mar ? 05:00:47 16° NW 05:01:40 18° NNW 05:03:50 10° NNE visible
02 Mar ? 04:02:27 20° NNE 04:02:27 20° NNE 04:03:37 10° NNE visible
03 Mar ? 04:36:03 14° NNW 04:36:03 14° NNW 04:37:26 10° N visible
